| time (UTC) | temp F | wind direction | speed MPH | gust MPH | rain 1hr in | rain 24hr in | rain mn in | humidity % | barometer mb |
| 20260507074542 | 56 | 193 | 1.0 | 4.0 | 0.00 | 0.00 | 0.00 | 74 | 1011.6 |
| 20260507073520 | 54 | 225 | 1.0 | 3.0 | 0.00 | 0.00 | 0.00 | 74 | 1011.7 |
| 20260507072518 | 54 | 155 | 1.0 | 3.0 | 0.00 | 0.00 | 0.00 | 77 | 1011.6 |
| 20260507071516 | 54 | 0.0 | 2.0 | 0.00 | 0.00 | 0.00 | 80 | 1011.7 | |
| 20260507070614 | 53 | 180 | 0.0 | 2.0 | 0.00 | 0.00 | 0.00 | 82 | 1011.8 |
| 20260507065612 | 52 | 225 | 0.0 | 2.0 | 0.00 | 0.00 | 0.00 | 83 | 1011.6 |
| 20260507064610 | 52 | 68 | 0.0 | 2.0 | 0.00 | 0.00 | 0.00 | 85 | 1011.7 |
| 20260507063610 | 53 | 90 | 1.0 | 2.0 | 0.00 | 0.00 | 0.00 | 86 | 1011.8 |
| 20260507062606 | 52 | 225 | 0.0 | 2.0 | 0.00 | 0.00 | 0.00 | 87 | 1011.7 |
| 20260507061604 | 50 | 211 | 1.0 | 3.0 | 0.00 | 0.00 | 0.00 | 88 | 1011.7 |
| 20260507060602 | 49 | 203 | 2.0 | 3.0 | 0.00 | 0.00 | 0.00 | 88 | 1011.6 |
| 20260507055600 | 49 | 168 | 1.0 | 2.0 | 0.00 | 0.00 | 0.00 | 88 | 1011.6 |
| 20260507054558 | 49 | 235 | 2.0 | 4.0 | 0.00 | 0.00 | 0.00 | 88 | 1011.6 |
| 20260507053556 | 49 | 91 | 1.0 | 2.0 | 0.00 | 0.00 | 0.00 | 88 | 1011.5 |
| 20260507052554 | 49 | 127 | 0.0 | 2.0 | 0.00 | 0.00 | 0.00 | 88 | 1011.4 |
| 20260507051552 | 49 | 180 | 0.0 | 2.0 | 0.00 | 0.00 | 0.00 | 87 | 1011.5 |
| 20260507050550 | 48 | 200 | 1.0 | 2.0 | 0.00 | 0.00 | 0.00 | 87 | 1011.5 |
| 20260507045548 | 48 | 0.0 | 1.0 | 0.00 | 0.00 | 0.00 | 87 | 1011.4 | |
| 20260507044546 | 48 | 214 | 0.0 | 2.0 | 0.00 | 0.00 | 0.00 | 87 | 1011.5 |
| 20260507043544 | 48 | 0.0 | 0.0 | 0.00 | 0.00 | 0.00 | 86 | 1011.6 | |
| 20260507042602 | 48 | 135 | 0.0 | 2.0 | 0.00 | 0.00 | 0.00 | 86 | 1011.7 |
| 20260507041542 | 47 | 0.0 | 2.0 | 0.00 | 0.00 | 0.00 | 86 | 1011.7 | |
| 20260507040538 | 48 | 90 | 2.0 | 2.0 | 0.00 | 0.00 | 0.00 | 86 | 1011.6 |
| 20260507035536 | 48 | 0.0 | 0.0 | 0.00 | 0.00 | 0.00 | 86 | 1011.8 | |
| 20260507034554 | 48 | 45 | 1.0 | 2.0 | 0.00 | 0.00 | 0.00 | 85 | 1011.9 |
| 20260507033532 | 48 | 0.0 | 1.0 | 0.00 | 0.00 | 0.00 | 85 | 1011.9 | |
| 20260507032532 | 48 | 90 | 0.0 | 2.0 | 0.00 | 0.00 | 0.00 | 85 | 1011.9 |
| 20260507031528 | 48 | 108 | 1.0 | 2.0 | 0.00 | 0.00 | 0.00 | 84 | 1012.0 |
| 20260507030647 | 49 | 90 | 0.0 | 2.0 | 0.00 | 0.00 | 0.00 | 84 | 1012.0 |
| 20260507025544 | 49 | 90 | 0.0 | 2.0 | 0.00 | 0.00 | 0.00 | 83 | 1012.0 |
| 20260507024522 | 49 | 102 | 1.0 | 3.0 | 0.00 | 0.00 | 0.00 | 83 | 1011.9 |
| 20260507023540 | 49 | 88 | 1.0 | 3.0 | 0.00 | 0.00 | 0.00 | 83 | 1012.1 |
| 20260507022518 | 50 | 98 | 1.0 | 2.0 | 0.00 | 0.00 | 0.00 | 83 | 1012.2 |
| 20260507021518 | 50 | 91 | 2.0 | 4.0 | 0.00 | 0.00 | 0.00 | 83 | 1012.4 |
| 20260507020615 | 50 | 135 | 2.0 | 2.0 | 0.00 | 0.00 | 0.00 | 81 | 1012.2 |
| 20260507015653 | 50 | 84 | 2.0 | 4.0 | 0.00 | 0.00 | 0.00 | 81 | 1012.1 |
| 20260507014611 | 51 | 0.0 | 0.0 | 0.00 | 0.00 | 0.00 | 80 | 1012.2 | |
| 20260507013609 | 51 | 0.0 | 0.0 | 0.00 | 0.00 | 0.00 | 80 | 1012.4 | |
| 20260507012727 | 51 | 0.0 | 0.0 | 0.00 | 0.00 | 0.00 | 80 | 1012.6 | |
| 20260507011605 | 51 | 0.0 | 0.0 | 0.00 | 0.00 | 0.00 | 80 | 1012.7 | |
| 20260507010603 | 51 | 0.0 | 0.0 | 0.00 | 0.00 | 0.00 | 80 | 1012.7 | |
| 20260507005601 | 52 | 0.0 | 0.0 | 0.00 | 0.00 | 0.00 | 79 | 1012.7 | |
| 20260507004559 | 52 | 0.0 | 1.0 | 0.00 | 0.00 | 0.00 | 77 | 1012.9 | |
| 20260507003557 | 52 | 0.0 | 2.0 | 0.00 | 0.00 | 0.00 | 77 | 1013.0 | |
| 20260507002555 | 52 | 68 | 0.0 | 2.0 | 0.00 | 0.00 | 0.00 | 76 | 1013.0 |
| 20260507001553 | 53 | 98 | 1.0 | 2.0 | 0.00 | 0.00 | 0.00 | 75 | 1013.1 |
| 20260507000551 | 53 | 45 | 1.0 | 2.0 | 0.00 | 0.00 | 0.00 | 75 | 1013.0 |
| 20260506235549 | 54 | 0.0 | 1.0 | 0.00 | 0.00 | 0.00 | 75 | 1013.2 | |
| 20260506234547 | 54 | 0.0 | 1.0 | 0.00 | 0.00 | 0.00 | 73 | 1013.2 | |
| 20260506233545 | 54 | 0.0 | 1.0 | 0.00 | 0.00 | 0.00 | 72 | 1013.4 | |
| 20260506232543 | 54 | 0.0 | 1.0 | 0.00 | 0.00 | 0.00 | 72 | 1013.4 | |
| 20260506231541 | 54 | 135 | 0.0 | 2.0 | 0.00 | 0.00 | 0.00 | 71 | 1013.5 |
| 20260506230539 | 55 | 0.0 | 1.0 | 0.00 | 0.00 | 0.00 | 71 | 1013.5 | |
| 20260506225659 | 55 | 135 | 0.0 | 2.0 | 0.00 | 0.00 | 0.00 | 70 | 1013.5 |
| 20260506224535 | 55 | 0.0 | 2.0 | 0.00 | 0.00 | 0.00 | 71 | 1013.5 | |
| 20260506223533 | 56 | 195 | 1.0 | 2.0 | 0.00 | 0.00 | 0.00 | 70 | 1013.5 |
| 20260506222551 | 56 | 113 | 0.0 | 2.0 | 0.00 | 0.00 | 0.00 | 70 | 1013.6 |
| 20260506221529 | 56 | 0.0 | 1.0 | 0.00 | 0.00 | 0.00 | 69 | 1013.9 | |
| 20260506220527 | 56 | 0.0 | 1.0 | 0.00 | 0.00 | 0.00 | 68 | 1014.0 | |
| 20260506215525 | 56 | 270 | 0.0 | 2.0 | 0.00 | 0.00 | 0.00 | 68 | 1014.0 |
| 20260506214543 | 56 | 0.0 | 1.0 | 0.00 | 0.00 | 0.00 | 68 | 1014.1 | |
| 20260506213523 | 55 | 0.0 | 0.0 | 0.00 | 0.00 | 0.00 | 68 | 1014.1 | |
| 20260506212519 | 55 | 0.0 | 1.0 | 0.00 | 0.00 | 0.00 | 68 | 1014.1 | |
| 20260506211537 | 56 | 0.0 | 2.0 | 0.00 | 0.00 | 0.00 | 68 | 1014.1 | |
| 20260506210535 | 56 | 90 | 0.0 | 2.0 | 0.00 | 0.00 | 0.00 | 68 | 1014.1 |
| 20260506205613 | 56 | 45 | 0.0 | 2.0 | 0.00 | 0.00 | 0.00 | 68 | 1014.0 |
| 20260506204611 | 56 | 56 | 0.0 | 2.0 | 0.00 | 0.00 | 0.00 | 68 | 1014.1 |
| 20260506203609 | 56 | 48 | 1.0 | 3.0 | 0.00 | 0.00 | 0.00 | 69 | 1014.1 |
| 20260506202608 | 56 | 65 | 1.0 | 2.0 | 0.00 | 0.00 | 0.00 | 69 | 1014.0 |
| 20260506201605 | 56 | 90 | 0.0 | 2.0 | 0.00 | 0.00 | 0.00 | 70 | 1014.0 |
| 20260506200603 | 56 | 90 | 1.0 | 2.0 | 0.00 | 0.00 | 0.00 | 69 | 1013.9 |
| 20260506195602 | 56 | 37 | 2.0 | 5.0 | 0.00 | 0.00 | 0.00 | 69 | 1013.9 |
| 20260506194620 | 56 | 77 | 1.0 | 2.0 | 0.00 | 0.00 | 0.00 | 69 | 1013.9 |
| 20260506193559 | 56 | 54 | 1.0 | 2.0 | 0.00 | 0.00 | 0.00 | 69 | 1013.9 |
| 20260506192556 | 56 | 31 | 2.0 | 4.0 | 0.00 | 0.00 | 0.00 | 68 | 1013.7 |
| 20260506191636 | 56 | 40 | 6.0 | 8.0 | 0.00 | 0.00 | 0.00 | 68 | 1013.7 |
| 20260506190552 | 57 | 15 | 3.0 | 6.0 | 0.00 | 0.00 | 0.00 | 67 | 1013.7 |
| 20260506185550 | 57 | 14 | 3.0 | 4.0 | 0.00 | 0.00 | 0.00 | 66 | 1013.6 |
| 20260506184548 | 57 | 56 | 4.0 | 6.0 | 0.00 | 0.00 | 0.00 | 64 | 1013.6 |
| 20260506183546 | 57 | 45 | 6.0 | 9.0 | 0.00 | 0.00 | 0.00 | 63 | 1013.5 |
| 20260506182544 | 57 | 32 | 6.0 | 10.0 | 0.00 | 0.00 | 0.00 | 61 | 1013.5 |
| 20260506181542 | 58 | 28 | 3.0 | 6.0 | 0.00 | 0.00 | 0.00 | 59 | 1013.6 |
| 20260506180540 | 58 | 45 | 4.0 | 8.0 | 0.00 | 0.00 | 0.00 | 58 | 1013.6 |
| 20260506175538 | 59 | 2 | 4.0 | 7.0 | 0.00 | 0.00 | 0.00 | 57 | 1013.6 |
| 20260506174536 | 59 | 42 | 4.0 | 6.0 | 0.00 | 0.00 | 0.00 | 54 | 1013.6 |
| 20260506173534 | 60 | 19 | 7.0 | 12.0 | 0.00 | 0.00 | 0.00 | 52 | 1013.5 |
| 20260506172533 | 60 | 326 | 4.0 | 8.0 | 0.00 | 0.00 | 0.00 | 51 | 1013.5 |
| 20260506171530 | 61 | 30 | 3.0 | 8.0 | 0.00 | 0.00 | 0.00 | 52 | 1013.4 |
| 20260506170548 | 61 | 350 | 4.0 | 8.0 | 0.00 | 0.00 | 0.00 | 51 | 1013.3 |
| 20260506165526 | 61 | 309 | 4.0 | 8.0 | 0.00 | 0.00 | 0.00 | 49 | 1013.3 |
| 20260506164524 | 62 | 309 | 4.0 | 8.0 | 0.00 | 0.00 | 0.00 | 48 | 1013.3 |
| 20260506163522 | 64 | 293 | 3.0 | 7.0 | 0.00 | 0.00 | 0.00 | 44 | 1013.4 |
| 20260506162520 | 65 | 38 | 5.0 | 9.0 | 0.00 | 0.00 | 0.00 | 43 | 1013.4 |
| 20260506161518 | 65 | 13 | 3.0 | 8.0 | 0.00 | 0.00 | 0.00 | 44 | 1013.2 |
| 20260506160516 | 64 | 139 | 5.0 | 8.0 | 0.00 | 0.00 | 0.00 | 42 | 1013.4 |
| 20260506155614 | 64 | 27 | 6.0 | 10.0 | 0.00 | 0.00 | 0.00 | 41 | 1013.4 |
| 20260506154612 | 64 | 318 | 4.0 | 8.0 | 0.00 | 0.00 | 0.00 | 42 | 1013.6 |
| 20260506153610 | 64 | 287 | 3.0 | 6.0 | 0.00 | 0.00 | 0.00 | 43 | 1013.5 |
| 20260506152628 | 64 | 295 | 5.0 | 10.0 | 0.00 | 0.00 | 0.00 | 45 | 1013.7 |
| 20260506151606 | 64 | 317 | 5.0 | 8.0 | 0.00 | 0.00 | 0.00 | 44 | 1013.7 |
| 20260506150604 | 64 | 348 | 5.0 | 9.0 | 0.00 | 0.00 | 0.00 | 45 | 1013.8 |
| 20260506145602 | 64 | 309 | 4.0 | 7.0 | 0.00 | 0.00 | 0.00 | 48 | 1013.9 |
| 20260506144600 | 63 | 135 | 5.0 | 10.0 | 0.00 | 0.00 | 0.00 | 49 | 1013.8 |
| 20260506143619 | 63 | 232 | 4.0 | 9.0 | 0.00 | 0.00 | 0.00 | 49 | 1013.9 |
| 20260506142557 | 64 | 303 | 3.0 | 8.0 | 0.00 | 0.00 | 0.00 | 44 | 1013.9 |
| 20260506141555 | 64 | 284 | 2.0 | 4.0 | 0.00 | 0.00 | 0.00 | 42 | 1013.9 |
| 20260506140552 | 65 | 0 | 2.0 | 3.0 | 0.00 | 0.00 | 0.00 | 42 | 1014.2 |
| 20260506135550 | 65 | 256 | 2.0 | 6.0 | 0.00 | 0.00 | 0.00 | 43 | 1014.3 |
| 20260506134549 | 65 | 225 | 3.0 | 7.0 | 0.00 | 0.00 | 0.00 | 42 | 1014.4 |
| 20260506133546 | 64 | 10 | 2.0 | 4.0 | 0.00 | 0.00 | 0.00 | 42 | 1014.6 |
| 20260506132544 | 64 | 315 | 2.0 | 4.0 | 0.00 | 0.00 | 0.00 | 44 | 1014.6 |
| 20260506131542 | 63 | 7 | 2.0 | 4.0 | 0.00 | 0.00 | 0.00 | 44 | 1014.6 |
| 20260506130541 | 63 | 270 | 2.0 | 3.0 | 0.00 | 0.00 | 0.00 | 46 | 1014.7 |
| 20260506125539 | 63 | 36 | 2.0 | 4.0 | 0.00 | 0.00 | 0.00 | 45 | 1014.8 |
| 20260506124537 | 63 | 16 | 2.0 | 5.0 | 0.00 | 0.00 | 0.00 | 48 | 1014.8 |
| 20260506123535 | 63 | 36 | 3.0 | 5.0 | 0.00 | 0.00 | 0.00 | 48 | 1014.9 |
| 20260506122533 | 63 | 316 | 3.0 | 7.0 | 0.00 | 0.00 | 0.00 | 46 | 1014.9 |
| 20260506121551 | 64 | 315 | 4.0 | 8.0 | 0.00 | 0.00 | 0.00 | 44 | 1015.0 |
| 20260506120529 | 65 | 90 | 6.0 | 9.0 | 0.00 | 0.00 | 0.00 | 43 | 1014.9 |
| 20260506115547 | 64 | 251 | 3.0 | 6.0 | 0.00 | 0.01 | 0.00 | 43 | 1015.0 |
| 20260506114546 | 64 | 14 | 4.0 | 8.0 | 0.00 | 0.02 | 0.00 | 42 | 1015.1 |
| 20260506113523 | 63 | 253 | 2.0 | 4.0 | 0.00 | 0.02 | 0.00 | 40 | 1015.1 |
| 20260506112521 | 64 | 45 | 3.0 | 4.0 | 0.00 | 0.02 | 0.00 | 40 | 1015.0 |
| 20260506111519 | 64 | 54 | 2.0 | 5.0 | 0.00 | 0.02 | 0.00 | 39 | 1015.1 |
| 20260506110517 | 65 | 352 | 2.0 | 4.0 | 0.00 | 0.02 | 0.00 | 42 | 1015.2 |
| 20260506105517 | 64 | 50 | 2.0 | 4.0 | 0.00 | 0.02 | 0.00 | 41 | 1015.2 |
| 20260506104613 | 63 | 60 | 2.0 | 4.0 | 0.00 | 0.02 | 0.00 | 42 | 1015.2 |
| 20260506103611 | 61 | 39 | 2.0 | 4.0 | 0.00 | 0.02 | 0.00 | 46 | 1015.3 |
| 20260506102609 | 62 | 28 | 2.0 | 6.0 | 0.00 | 0.02 | 0.00 | 44 | 1015.2 |
| 20260506101607 | 64 | 19 | 2.0 | 4.0 | 0.00 | 0.02 | 0.00 | 42 | 1015.2 |
| 20260506100605 | 61 | 0.0 | 1.0 | 0.00 | 0.02 | 0.00 | 48 | 1015.3 | |
| 20260506095623 | 60 | 250 | 3.0 | 7.0 | 0.00 | 0.02 | 0.00 | 46 | 1015.3 |
| 20260506094601 | 59 | 216 | 2.0 | 4.0 | 0.00 | 0.02 | 0.00 | 48 | 1015.3 |
| 20260506093559 | 59 | 227 | 4.0 | 9.0 | 0.00 | 0.02 | 0.00 | 48 | 1015.2 |
| 20260506092557 | 60 | 175 | 1.0 | 5.0 | 0.00 | 0.02 | 0.00 | 51 | 1015.3 |
| 20260506091555 | 59 | 212 | 2.0 | 4.0 | 0.00 | 0.02 | 0.00 | 51 | 1015.2 |
| 20260506090613 | 58 | 121 | 2.0 | 4.0 | 0.00 | 0.02 | 0.00 | 53 | 1015.2 |
| 20260506085551 | 58 | 189 | 2.0 | 4.0 | 0.00 | 0.02 | 0.00 | 54 | 1015.2 |
| 20260506084609 | 58 | 168 | 2.0 | 5.0 | 0.00 | 0.02 | 0.00 | 55 | 1015.3 |
| 20260506083547 | 58 | 213 | 1.0 | 3.0 | 0.00 | 0.02 | 0.00 | 62 | 1015.2 |
| 20260506082546 | 57 | 210 | 1.0 | 2.0 | 0.00 | 0.02 | 0.00 | 64 | 1015.3 |
| 20260506081543 | 56 | 78 | 2.0 | 4.0 | 0.00 | 0.02 | 0.00 | 66 | 1015.3 |
| 20260506080541 | 55 | 125 | 1.0 | 2.0 | 0.00 | 0.02 | 0.00 | 70 | 1015.3 |